Location: Omega
(41.0000°S, 175.3333°E)
Time: 09:16:27
(UTC+00:00)

Daily predictions for brighter satellites

Satellite Brightness Start Highest point End
(mag) Time Altitude Azimuth Time Altitude Azimuth Time Altitude Azimuth
ALOS 2 4.3 12:07:58 10° SSE 12:10:34 28° SE 12:10:34 28° SE
ATLAS 3B R/B 4.0 12:16:51 10° SSW 12:22:25 32° SE 12:27:40 12° ENE
NOSS 3-1 (A) 4.2 12:18:22 10° SW 12:22:39 36° WSW 12:22:39 36° WSW
Cosmos 2154 Rocket 4.2 12:27:07 59° E 12:27:19 60° E 12:33:32 10° SSE
Meteor 2-9 Rocket 4.5 12:28:52 57° SW 12:28:52 57° SW 12:33:38 10° S
IDEFIX/ARIANE 42P 3.3 12:33:56 45° ESE 12:34:08 45° ESE 12:39:07 10° S
Cosmos 2181 Rocket 3.9 12:28:12 10° S 12:34:43 81° W 12:34:53 81° WNW
Cosmos 2297 Rocket 2.5 12:35:59 59° ESE 12:35:59 59° ESE 12:41:01 10° SSE
Cosmos 2322 3.8 12:29:57 10° SSW 12:35:06 70° SW 12:35:06 70° SW
COSMOS 2428 2.7 12:31:09 10° SSW 12:36:29 77° SSW 12:36:29 77° SSW
Cosmos 1295 Rocket 4.4 12:37:39 86° N 12:37:49 90° ESE 12:44:13 10° S
Spot 4 4.3 12:42:50 10° S 12:46:54 59° SSW 12:46:54 59° SSW
Cosmos 2237 Rocket 2.9 12:44:11 10° SSW 12:49:45 48° ESE 12:50:59 42° E
ARIANE 5 R/B 3.7 12:50:38 10° S 12:54:02 40° SW 12:54:02 40° SW
Meteor 1-21 4.2 12:51:44 10° S 12:57:31 78° E 12:57:35 78° E
Cosmos 1515 Rocket 4.4 12:55:14 10° S 12:58:37 50° S 12:58:37 50° S
Cosmos 1538 Rocket 4.3 13:02:27 63° E 13:02:27 63° E 13:07:28 10° SSE
SeaSat 1 4.3 13:05:03 20° WSW 13:05:03 20° WSW 13:07:03 10° SW
Meteor 2-13 Rocket 4.4 12:57:15 10° SSW 13:03:24 70° W 13:03:26 70° W
Cosmos 1610 Rocket 4.3 13:09:46 78° N 13:10:13 90° NE 13:16:30 10° S
USA 267 4.0 13:14:57 36° W 13:14:57 36° W 13:19:31 10° WSW
Nadezhda 3 Rocket 3.9 13:07:26 10° S 13:13:48 78° W 13:14:19 73° NW
Sich 1 3.8 13:15:28 49° S 13:15:28 49° S 13:18:40 10° S
Cosmos 2074 Rocket 4.3 13:14:02 50° W 13:14:31 51° WSW 13:20:43 10° S
ADEOS II 3.8 13:17:17 16° ENE 13:20:21 28° ESE 13:24:47 10° S
Cosmos 2227 Rocket 2.2 13:23:28 67° NE 13:23:43 69° ENE 13:29:25 10° SSE
CZ-2C R/B 3.4 13:20:15 10° SSE 13:25:15 41° E 13:25:54 40° ENE
ARGOS Delta rocket 3.9 13:27:21 67° SSE 13:27:21 67° SSE 13:31:25 10° S
MSX 3.9 13:30:13 59° W 13:30:13 59° W 13:35:56 10° SSW
NOSS 0 Rocket 4.3 13:24:16 10° SW 13:29:45 48° W 13:29:45 48° W
Cosmos 1805 Rocket 3.9 13:32:21 65° S 13:32:21 65° S 13:36:14 10° S
Cosmos 1339 Rocket 4.3 13:27:22 10° S 13:33:32 74° W 13:34:14 66° NW
FENGYUN 3A 3.5 13:33:28 78° NW 13:33:42 80° WNW 13:39:14 10° SSW
ATLAS 2AS CENTAUR R/B 4.1 13:34:58 19° W 13:38:58 32° SW 13:45:24 10° SSE
H-2A R/B 3.5 13:41:11 27° ENE 13:42:29 33° ESE 13:46:15 10° S
NPP 3.9 13:45:32 50° W 13:45:32 50° W 13:50:35 10° SSW
ARIANE 6 FM1 Upper Stage 4.5 13:46:45 24° ENE 13:46:45 24° ENE 13:50:08 10° ESE
Cosmos 962 Rocket 4.4 13:46:37 60° NW 13:47:42 73° W 13:53:58 10° S
ALOS 2 4.5 13:44:55 10° SSW 13:47:58 20° WSW 13:47:58 20° WSW
Cosmos 923 Rocket 3.9 13:47:42 66° NNE 13:48:12 72° ENE 13:53:27 10° SSE
Cosmos 44 3.4 13:48:08 62° WSW 13:48:25 64° SW 13:53:19 10° SSE
Cosmos 2263 Rocket 2.3 13:51:06 54° NNE 13:52:09 65° ENE 13:57:49 10° SSE
SL-8 Rocket 3.9 13:50:58 55° NNW 13:52:30 86° W 13:58:52 10° S
CZ-2D R/B 2.2 13:52:09 49° NNE 13:53:35 77° ESE 13:59:00 10° S
Cosmos 1959 Rocket 4.5 13:52:43 50° N 13:54:27 78° E 14:00:38 10° S
ACS3 Solar Sail 3.5 13:49:21 10° NE 13:54:42 31° ESE 14:00:04 10° S
SL-16 R/B 3.2 13:49:19 10° SSW 13:54:50 46° ESE 14:00:17 10° NE
USA 229 DEB 3.3 13:49:27 10° SW 13:55:45 65° WNW 13:56:34 58° NNW
USA 229 3.2 13:49:42 10° SW 13:56:00 66° WNW 13:56:50 58° NNW
Meteor 2-10 Rocket 3.4 13:57:00 67° NW 13:57:32 74° W 14:02:55 10° S
Resurs 1-4 Rocket 2.0 13:57:11 57° NNE 13:58:20 88° WNW 14:03:44 10° SSW
Cosmos 1500 Rocket 4.4 13:58:57 39° WSW 13:58:57 39° WSW 14:02:40 10° S
Cosmos 1821 Rocket 4.3 13:56:40 36° NNE 13:59:14 62° E 14:05:33 10° SSE
Cosmos 1633 Rocket 3.8 13:59:03 41° ENE 13:59:46 45° E 14:03:59 10° SSE
Meteor 2-19 Rocket 4.3 13:53:42 10° S 13:59:52 83° W 14:01:35 50° N
Tiangong 0.2 14:03:01 21° E 14:03:01 21° E 14:04:13 10° E
Cosmos 2219 3.6 14:00:53 42° NNE 14:02:27 55° ENE 14:08:05 10° SSE
H-2A R/B 3.4 14:00:52 11° NE 14:05:16 37° ESE 14:10:06 10° S
Cosmos 2366 rocket 3.9 14:04:07 50° NNW 14:05:49 76° W 14:12:12 10° S
Okean 1-7 3.9 14:02:34 10° S 14:06:36 43° ESE 14:07:57 32° NE
Cosmos 1862 Rocket 3.9 14:03:49 10° S 14:08:12 60° E 14:09:15 46° NE
Cosmos 2228 Rocket 3.8 14:07:05 10° S 14:11:26 50° E 14:13:08 32° NE
Okean 3 4.3 14:09:01 10° SSW 14:12:00 36° WSW 14:12:00 36° WSW
ATLAS 3B R/B 2.6 14:07:09 10° SW 14:13:16 53° WNW 14:14:47 44° NNW
IDEFIX/ARIANE 42P 4.1 14:14:37 21° W 14:14:37 21° W 14:17:50 10° SW
GEOS 3 Rocket 3.6 14:10:05 10° SE 14:15:09 66° NE 14:16:21 49° N
Cosmos 724 4.3 14:16:26 45° N 14:18:10 69° ENE 14:23:56 10° SE
Cosmos 2297 Rocket 3.9 14:17:45 17° W 14:19:52 21° SW 14:24:07 10° S
H-2A R/B 4.4 14:21:56 10° SE 14:24:43 20° E 14:26:38 14° NE
Cosmos 2218 Rocket 4.3 14:25:57 39° NW 14:28:02 55° W 14:34:24 10° S
Cosmos 494 Rocket 4.0 14:26:53 44° N 14:28:36 80° ENE 14:33:52 10° SSE
NOAA 11 4.4 14:29:04 43° NW 14:30:06 48° W 14:35:25 10° SSW
Cosmos 1680 Rocket 3.6 14:28:41 46° NW 14:30:09 67° WSW 14:35:30 10° SSE
Cosmos 1607 4.0 14:29:01 37° NNW 14:31:43 77° ENE 14:38:10 10° SE
Cosmos 2237 Rocket 3.5 14:28:55 10° SW 14:32:45 24° W 14:32:45 24° W
Cosmos 1707 Rocket 3.4 14:30:13 10° SSW 14:34:35 69° W 14:35:28 53° NNW
Cosmos 1420 Rocket 4.0 14:33:28 10° SSW 14:38:36 56° WNW 14:40:22 38° NNW
ALOS 2.4 14:37:57 46° NW 14:38:42 51° W 14:43:13 10° SSW
Meteor 2-5 Rocket 4.4 14:32:52 10° S 14:38:46 57° ESE 14:44:37 10° NNE
Cosmos 1624 Rocket 4.0 14:35:36 10° SSW 14:40:57 86° ESE 14:45:41 13° NNE
Cosmos 1818 3.7 14:41:08 10° SSW 14:46:34 76° ESE 14:51:58 10° NE
Cosmos 1666 Rocket 4.1 14:46:36 38° WNW 14:47:22 42° WSW 14:51:36 10° S
Cosmos 1048 Rocket 4.4 14:44:32 26° N 14:47:30 62° ENE 14:52:50 10° SSE
Cosmos 1328 4.1 14:44:00 10° S 14:47:38 57° E 14:49:44 23° NNE
Meteor 1-22 Rocket 4.4 14:47:13 30° NNW 14:50:22 74° W 14:56:23 10° S
USA 308 2.3 14:47:41 10° SW 14:50:53 87° SE 14:54:58 10° NE
Meteor 2-14 Rocket 4.4 14:48:52 10° SSW 14:55:05 71° W 14:59:41 19° N
SL-4 R/B 4.1 14:53:10 10° SW 14:56:35 26° SSE 14:59:52 10° ESE
ADEOS II 2.7 14:58:05 30° NW 14:59:43 37° W 15:04:37 10° SSW
Cosmos 1900 4.3 14:58:56 29° NNW 15:01:22 74° ENE 15:06:14 10° SE
Envisat 3.8 15:00:16 29° WNW 15:01:25 32° W 15:06:00 10° SSW
CZ-2C R/B 3.9 15:00:57 10° SSW 15:05:13 26° WSW 15:07:22 20° W
Cosmos 2227 Rocket 4.0 15:05:15 13° W 15:08:18 20° SW 15:12:25 10° S
METEOR-M 4.3 15:08:12 19° N 15:11:50 51° W 15:17:06 10° SSW
Cosmos 1703 Rocket 3.4 15:09:35 10° S 15:13:59 84° W 15:18:08 11° N
ADEOS Rocket 3.6 15:06:26 10° N 15:14:03 59° W 15:21:18 10° SSW
Cosmos 1867 3.7 15:11:54 21° NNW 15:15:29 73° ENE 15:20:54 10° SE
Meteor 1-15 Rocket 4.5 15:12:18 22° NNW 15:16:02 59° WSW 15:21:58 10° S
H-2A R/B 3.4 15:17:36 21° W 15:17:51 21° W 15:21:02 10° SW
MOS 1-B Rocket 4.4 15:10:37 10° NNE 15:18:03 86° ESE 15:24:28 10° SSW
ARGOS 3.3 15:12:45 10° NNE 15:18:09 78° ESE 15:23:36 10° S
CZ-2C R/B 2.8 15:14:26 10° NNE 15:19:25 66° ESE 15:24:18 10° S
Meteor 2-8 Rocket 4.4 15:16:15 13° N 15:21:43 86° W 15:27:57 10° S
Cosmos 2227 4.2 15:17:30 18° NNW 15:21:49 81° ENE 15:27:31 10° SSE
Cosmos 1953 2.6 15:23:09 26° NW 15:24:44 41° WSW 15:28:19 10° S
ARIANE 6 FM1 Upper Stage 3.6 15:22:48 21° WNW 15:25:23 41° SW 15:29:42 10° SSE
Cosmos 1844 4.0 15:20:58 14° N 15:25:49 66° ENE 15:31:26 10° SSE
Meteor 1-12 Rocket 4.3 15:22:38 12° N 15:28:07 86° W 15:33:57 10° S
Cosmos 2056 Rocket 4.3 15:25:14 10° SW 15:29:57 33° W 15:34:01 13° NNW
Meteor 1-24 Rocket 4.1 15:25:15 10° SSW 15:31:06 49° W 15:36:49 10° NNW
PAYLOAD A 4.1 15:26:46 10° NNE 15:31:33 72° ESE 15:36:19 10° S
Delta 2 Rocket 3.7 15:32:14 24° NNW 15:32:55 26° N 15:35:34 10° NE
Meteor 1-16 Rocket 4.1 15:28:01 13° NNW 15:32:58 75° W 15:38:24 10° S
CZ-2D R/B 3.9 15:33:24 13° W 15:34:09 13° W 15:36:33 10° WSW
Cosmos 2263 Rocket 3.8 15:32:45 12° W 15:36:32 21° SW 15:40:48 10° S
CZ-4C R/B 3.2 15:28:53 16° NW 15:36:32 84° WSW 15:44:07 10° SSE
ACS3 Solar Sail 2.2 15:31:28 10° NNW 15:37:23 44° W 15:43:21 10° SSW
Tiangong -1.9 15:35:21 15° W 15:37:52 51° NNW 15:41:04 10° ENE
SL-16 R/B 3.2 15:34:00 10° SW 15:38:36 25° WNW 15:42:43 12° NNW
Resurs 1-4 Rocket 4.1 15:38:13 10° W 15:38:48 10° W 15:39:38 10° W
Cosmos 1844 Rocket 2.7 15:34:04 14° NNW 15:39:04 86° WSW 15:44:50 10° SSE
Cosmos 1605 Rocket 4.2 15:34:08 10° N 15:40:27 82° E 15:46:57 10° S
Cosmos 1933 Rocket 4.0 15:40:05 15° NNW 15:43:27 44° WSW 15:47:47 10° S
H-2A R/B 3.1 15:41:21 15° NW 15:44:37 27° W 15:49:02 10° SW
H-2A R/B 3.4 15:43:42 10° NNE 15:47:34 82° ESE 15:51:31 10° S
SL-08 RB Rocket 3.6 15:45:34 10° NNE 15:49:59 84° WNW 15:54:30 10° SSW
Cosmos 614 Rocket 3.9 15:45:02 10° NNW 15:50:05 85° WSW 15:55:15 10° SSE
Spot 2 4.3 15:48:04 10° S 15:52:33 58° WSW 15:56:44 10° NNW
ATLAS CENTAUR R/B 0.7 15:51:32 16° NW 15:53:43 54° SW 15:56:39 10° SSE
Cosmos 1939 Rocket 3.1 15:53:29 10° NNE 15:57:10 67° ESE 16:00:52 10° S
H-2A R/B 3.4 15:55:41 10° SSW 15:58:51 27° WSW 16:01:50 11° NW
Cosmos 1110 Rocket 4.3 15:57:42 10° SSW 16:02:42 45° WNW 16:07:39 10° N
BREEZE-M DEB (TANK) 3.5 15:50:09 10° WSW 16:03:10 74° NW 16:06:51 10° NE
MOZ.5/SAFIR/RUBIN 5/SL-8 4.3 16:01:23 10° S 16:05:46 42° WSW 16:10:08 10° NW
Cosmos 1302 Rocket 4.3 16:00:52 10° SSW 16:06:11 76° ESE 16:11:23 10° NNE
Cosmos 1869 Rocket 4.3 16:03:09 10° NW 16:07:17 36° WSW 16:11:30 10° S
USA 308 4.2 16:12:53 10° W 16:15:09 15° NW 16:17:31 10° NNW
Cosmos 2242 Rocket 3.6 16:15:44 10° S 16:20:12 76° W 16:24:36 10° N
